{"data":{"norad_id":43108,"epoch":"2026-05-23T14:17:32.025120Z","epoch_age_seconds":196641,"freshness":"STALE","line1":"1 43108U 18003B   26143.59550955 -.00000077  00000+0  00000+0 0  9990","line2":"2 43108  54.3440 303.1537 0002125 272.4030  87.5525  1.86230755 56907","mean_motion":1.86230755,"eccentricity":0.0002125,"inclination_deg":54.344,"raan_deg":303.1537,"arg_perigee_deg":272.403,"mean_anomaly_deg":87.5525,"bstar":0,"rev_number":5690,"period_min":773.23425982996,"perigee_km":21522.145968679,"apogee_km":21534.00610922,"semimajor_km":27906.21303895,"source":"CELESTRAK","updated_at":"2026-05-25T13:38:24.217376Z"}}